Weather History for Fort Payne, AL

Change the Weather History Date:

Tuesday, November 20, 2012

  Actual Average (KRMG) Record (KRMG)
Temperature  
Mean Temperature 50 °F 49 °F  
Max Temperature 66 °F 61 °F 73 °F (2007)
Min Temperature 35 °F 37 °F 26 °F (2008)
Degree Days  
Heating Degree Days 14 16  
Month to date heating degree days 254  
Since 1 July heating degree days 431  
Moisture  
Dew Point 38 °F    
Average Humidity 66    
Maximum Humidity 93    
Minimum Humidity 32    
Precipitation  
Precipitation 0.00 in 0.18 in 0.55 in (2002)
Month to date precipitation 2.98  
Snow  
Snow 0.00 in - - ()
Month to date snowfall  
Since 1 July snowfall  
Since 1 September snowfall  
Snow Depth -    
Sea Level Pressure  
Sea Level Pressure 30.14 in    
Wind  
Wind Speed 0 mph (NW)    
Max Wind Speed 7 mph    
Max Gust Speed -    
Visibility 10 miles    
Events      
T = Trace of Precipitation, MM = Missing Value Source: NWS Daily Summary

Daily Weather History Graph

Daily Weather History Graph

Search for Another Location

Airport:

Trip Planner

Search our weather history database for the weather conditions in past years. The results will help you decide how hot, cold, wet, or windy it might be!

Date:

Astronomy

Nov. 20, 2012 Rise Set
Actual Time 6:21 AM CST 4:35 PM CST
Civil Twilight 5:54 AM CST 5:02 PM CST
Nautical Twilight 5:23 AM CST 5:33 PM CST
Astronomical Twilight 4:53 AM CST 6:03 PM CST
Moon 12:04 PM CST (11/20) 11:56 PM CST (11/20)
Length of Visible Light 11h 07m
Length of Day
10h 13m
First Quarter, 51% of the Moon is Illuminated
Nov 20
First Quarter
Nov 28
Full
Dec 6
Last Quarter
Dec 13
New
Dec 19
First Quarter

Hourly Weather History & Observations

Time (CST) Temp. Dew Point Humidity Pressure Visibility Wind Dir Wind Speed Gust Speed Precip Events Conditions
12:15 AM 39.2 °F 35.6 °F 87% 30.19 in 10.0 mi Calm Calm - N/A   Clear
12:35 AM 39.2 °F 35.6 °F 87% 30.18 in 10.0 mi Calm Calm - N/A   Clear
12:55 AM 39.2 °F 35.6 °F 87% 30.19 in 10.0 mi Calm Calm - N/A   Scattered Clouds
1:15 AM 41.0 °F 37.4 °F 87% 30.18 in 10.0 mi Calm Calm - N/A   Mostly Cloudy
1:35 AM 41.0 °F 37.4 °F 87% 30.18 in 10.0 mi Calm Calm - N/A   Overcast
1:55 AM 41.0 °F 37.4 °F 87% 30.18 in 10.0 mi Calm Calm - N/A   Mostly Cloudy
2:15 AM 41.0 °F 37.4 °F 87% 30.17 in 10.0 mi Calm Calm - N/A   Mostly Cloudy
2:35 AM 41.0 °F 37.4 °F 87% 30.17 in 10.0 mi Calm Calm - N/A   Overcast
6:15 AM 35.6 °F 33.8 °F 93% 30.19 in 10.0 mi Calm Calm - N/A   Clear
6:35 AM 35.6 °F 33.8 °F 93% 30.19 in 7.0 mi Calm Calm - N/A   Clear
6:55 AM 35.6 °F 33.8 °F 93% 30.20 in 10.0 mi Calm Calm - N/A   Clear
7:15 AM 37.4 °F 33.8 °F 87% 30.20 in 10.0 mi Calm Calm - N/A   Clear
7:35 AM 39.2 °F 37.4 °F 93% 30.20 in 10.0 mi Calm Calm - N/A   Scattered Clouds
7:55 AM 41.0 °F 37.4 °F 87% 30.20 in 10.0 mi Calm Calm - N/A   Scattered Clouds
8:15 AM 44.6 °F 39.2 °F 81% 30.20 in 10.0 mi Calm Calm - N/A   Scattered Clouds
8:35 AM 48.2 °F 41.0 °F 76% 30.20 in 10.0 mi Calm Calm - N/A   Clear
8:55 AM 51.8 °F 41.0 °F 67% 30.20 in 10.0 mi Calm Calm - N/A   Clear
9:15 AM 53.6 °F 41.0 °F 62% 30.20 in 10.0 mi Calm Calm - N/A   Clear
9:35 AM 57.2 °F 41.0 °F 55% 30.20 in 10.0 mi Calm Calm - N/A   Clear
9:55 AM 60.8 °F 41.0 °F 48% 30.19 in 10.0 mi Calm Calm - N/A   Clear
10:15 AM 60.8 °F 41.0 °F 48% 30.18 in 10.0 mi Calm Calm - N/A   Clear
10:35 AM 60.8 °F 41.0 °F 48% 30.17 in 10.0 mi Calm Calm - N/A   Clear
10:55 AM 62.6 °F 37.4 °F 39% 30.16 in 10.0 mi Calm Calm - N/A   Clear
11:15 AM 62.6 °F 37.4 °F 39% 30.15 in 10.0 mi Calm Calm - N/A   Clear
11:35 AM 64.4 °F 37.4 °F 37% 30.14 in 10.0 mi Calm Calm - N/A   Clear
11:55 AM 64.4 °F 37.4 °F 37% 30.13 in 10.0 mi West 5.8 mph - N/A   Clear
12:15 PM 64.4 °F 35.6 °F 34% 30.12 in 10.0 mi Calm Calm - N/A   Clear
12:35 PM 64.4 °F 35.6 °F 34% 30.11 in 10.0 mi North 3.5 mph - N/A   Clear
1:15 PM 64.4 °F 35.6 °F 34% 30.10 in 10.0 mi Calm Calm - N/A   Clear
1:35 PM 66.2 °F 37.4 °F 35% 30.09 in 10.0 mi NNW 6.9 mph - N/A   Clear
1:55 PM 66.2 °F 35.6 °F 32% 30.09 in 10.0 mi Calm Calm - N/A   Clear
2:15 PM 64.4 °F 35.6 °F 34% 30.09 in 10.0 mi Calm Calm - N/A   Clear
2:35 PM 64.4 °F 35.6 °F 34% 30.08 in 10.0 mi Calm Calm - N/A   Clear
2:55 PM 64.4 °F 35.6 °F 34% 30.09 in 10.0 mi Calm Calm - N/A   Scattered Clouds
3:15 PM 64.4 °F 35.6 °F 34% 30.09 in 10.0 mi Calm Calm - N/A   Scattered Clouds
3:35 PM 64.4 °F 35.6 °F 34% 30.08 in 10.0 mi Calm Calm - N/A   Clear
3:55 PM 64.4 °F 37.4 °F 37% 30.08 in 10.0 mi Calm Calm - N/A   Clear
4:15 PM 62.6 °F 37.4 °F 39% 30.08 in 10.0 mi Calm Calm - N/A   Clear
4:35 PM 60.8 °F 37.4 °F 42% 30.08 in 10.0 mi Calm Calm - N/A   Clear
4:55 PM 55.4 °F 41.0 °F 58% 30.08 in 10.0 mi Calm Calm - N/A   Clear
5:15 PM 53.6 °F 41.0 °F 62% 30.08 in 10.0 mi Calm Calm - N/A   Clear
5:35 PM 51.8 °F 41.0 °F 67% 30.09 in 10.0 mi Calm Calm - N/A   Clear
5:55 PM 51.8 °F 41.0 °F 67% 30.09 in 10.0 mi Calm Calm - N/A   Clear
6:15 PM 50.0 °F 41.0 °F 71% 30.09 in 10.0 mi Calm Calm - N/A   Clear
6:55 PM 46.4 °F 41.0 °F 81% 30.10 in 10.0 mi Calm Calm - N/A   Scattered Clouds
7:15 PM 46.4 °F 39.2 °F 76% 30.10 in 10.0 mi Calm Calm - N/A   Scattered Clouds
7:35 PM 44.6 °F 39.2 °F 81% 30.11 in 10.0 mi Calm Calm - N/A   Clear
7:55 PM 44.6 °F 41.0 °F 87% 30.12 in 10.0 mi Calm Calm - N/A   Scattered Clouds
8:15 PM 44.6 °F 39.2 °F 81% 30.12 in 10.0 mi Calm Calm - N/A   Scattered Clouds
8:35 PM 42.8 °F 37.4 °F 81% 30.12 in 10.0 mi Calm Calm - N/A   Scattered Clouds
8:55 PM 44.6 °F 39.2 °F 81% 30.13 in 10.0 mi Calm Calm - N/A   Scattered Clouds
9:15 PM 44.6 °F 39.2 °F 81% 30.13 in 10.0 mi Calm Calm - N/A   Overcast
9:35 PM 44.6 °F 39.2 °F 81% 30.13 in 10.0 mi Calm Calm - N/A   Overcast
9:55 PM 44.6 °F 39.2 °F 81% 30.13 in 10.0 mi Calm Calm - N/A   Overcast
10:15 PM 44.6 °F 39.2 °F 81% 30.13 in 10.0 mi Calm Calm - N/A   Mostly Cloudy
10:35 PM 44.6 °F 41.0 °F 87% 30.13 in 10.0 mi Calm Calm - N/A   Overcast
10:55 PM 44.6 °F 41.0 °F 87% 30.13 in 10.0 mi Calm Calm - N/A   Mostly Cloudy
11:15 PM 44.6 °F 41.0 °F 87% 30.12 in 10.0 mi Calm Calm - N/A   Mostly Cloudy
11:35 PM 44.6 °F 41.0 °F 87% 30.12 in 10.0 mi Calm Calm - N/A   Overcast
11:55 PM 46.4 °F 41.0 °F 81% 30.12 in 10.0 mi Calm Calm - N/A   Overcast